C/2022 A2 ( PanSTARRS )

Japanese version
Home page
Updated on April 15, 2023

---------------------------------------------------------------------

* Profile

Discovery Date January 10, 2022
Magnitude 20.5 mag
Discoverer Pan-STARRS 2 telescope (Haleakala)

* Pictures

* Orbital Elements

Epoch 2023 Feb. 25.0 TT = JDT 2460000.5
T 2023 Feb. 18.26676 TT                                 Rudenko
q   1.7352929            (2000.0)            P               Q
z  -0.0001864      Peri.   88.36683     +0.01739702     +0.99011800
 +/-0.0000003      Node   171.57949     -0.09144948     -0.13701548
e   1.0003234      Incl.  108.14698     +0.99565774     -0.02988487
>From 958 observations 2022 Jan. 9-2023 Mar. 19, mean residual 0".5.

* Finding Charts

* Magnitudes Graph

        m1 = 4.0 + 5 log d + 18.0 log r

---------------------------------------------------------------------

The orbital elements are published on M.P.E.C. 2023-F81.
The charts are made with StellaNavigator Ver.10 (AstroArts).
The magnitudes graphs are made with Comet for Windows.

---------------------------------------------------------------------

Copyright(C) Seiichi Yoshida (comet@aerith.net). All rights reserved.